Temp
73 71 71 72 73 74 73 73 74 74 75 75 75 76 76 76 75 75 74 74 74 74 74 73 72 72 73 72 71 71 71 71 70 69 69 71 69 70 73 72 73 74 75 73 72 68 67 65 69 78 80 80 80 80 80 82 84 84 82 81 84 85 85
73 72 74 74 73 73 71 72 73 73 73 73 75 74 75 76 75 75 74 74 73 73 75 74 73 73 71 71 70 70 69 70 70 69 68 69 69 69 70 70 72 72 75 75 74 73 69 68 69 72 74 78 77 77 77 80 82 82 83 82 83 84 82
73 73 74 72 72 72 71 71 72 72 73 72 73 74 74 75 75 75 75 74 73 73 74 73 72 71 71 71 71 70 70 69 69 69 69 69 69 69 70 70 69 70 71 72 72 72 72 72 68 71 73 72 70 74 78 77 79 82 83 81 80 84 84
71 71 71 70 71 71 71 71 71 72 73 73 73 72 73 74 73 74 73 73 73 72 73 72 72 72 72 71 71 71 70 69 69 69 68 69 69 69 69 70 69 70 69 68 70 71 70 68 68 69 71 74 73 72 75 79 79 81 81 81 81 83 83
71 71 71 70 71 71 71 70 71 71 71 72 72 72 72 73 73 73 73 73 73 72 72 73 72 73 72 72 71 71 70 70 70 69 68 68 68 69 69 70 70 70 70 69 72 71 69 69 68 67 68 71 72 74 78 76 77 77 78 80 83 83 83
72 72 72 72 72 71 71 71 71 71 71 71 71 71 71 72 73 71 72 72 72 71 72 73 72 72 71 71 71 70 70 70 70 69 68 68 68 67 68 70 70 71 71 73 72 70 70 70 68 65 69 71 66 69 74 75 75 79 79 79 81 83 85
72 72 73 73 73 73 72 71 71 71 71 70 71 71 73 74 73 72 71 71 72 72 72 71 71 72 71 72 71 70 69 70 70 69 69 69 69 68 69 69 70 70 70 71 70 70 69 68 67 66 65 66 67 67 71 72 75 72 76 79 81 82 82
73 73 73 73 72 72 72 71 72 72 71 72 72 72 73 72 72 72 72 71 71 71 71 71 71 72 70 71 71 70 70 70 69 69 69 68 68 69 69 69 69 69 70 71 70 69 71 70 69 67 65 62 63 66 66 72 73 71 73 77 80 81 82
74 73 73 73 72 72 72 72 71 71 72 72 72 72 72 73 72 72 72 72 71 71 71 71 71 71 70 69 70 69 68 71 68 68 68 69 68 68 68 69 68 69 70 71 70 70 71 70 69 69 67 64 61 59 64 64 68 71 76 74 78 80 80
73 72 72 71 71 72 72 72 71 72 72 72 71 72 71 72 72 71 71 71 70 70 70 70 71 71 70 69 69 68 67 69 68 68 68 67 68 68 68 68 68 69 70 70 69 69 70 70 70 69 69 66 64 60 59 59 63 65 72 76 72 76 79
73 73 72 72 72 71 71 71 72 71 71 72 72 72 71 71 70 70 70 70 70 70 69 70 70 70 69 69 69 68 69 68 67 68 68 68 67 68 67 68 68 67 69 67 67 67 67 67 68 69 68 68 67 62 61 58 59 65 66 71 72 73 77
73 73 73 73 72 71 71 71 71 71 71 72 71 71 71 71 71 70 70 70 70 69 69 69 69 69 69 67 67 67 68 67 66 66 67 66 66 67 66 66 66 66 67 66 66 66 67 67 67 69 68 68 67 65 63 61 57 63 66 64 68 73 73
74 74 73 72 71 72 72 72 72 71 70 72 72 71 72 71 71 70 70 70 69 70 69 69 69 68 67 67 66 66 66 65 65 65 66 67 66 65 65 65 66 66 66 66 66 67 67 66 66 66 67 67 66 65 64 62 59 58 64 64 66 68 70
72 74 73 72 72 72 72 72 72 72 72 71 72 71 71 71 72 71 71 70 70 69 68 68 68 67 67 66 65 64 65 65 65 65 64 63 65 64 64 64 65 65 67 65 65 66 67 68 67 66 67 67 66 66 65 62 60 60 63 67 66 67 69
73 74 72 72 71 72 72 72 72 72 71 72 72 72 72 71 71 71 71 71 69 69 69 69 67 67 66 64 64 64 64 64 63 63 63 63 64 64 63 64 64 65 66 65 64 65 67 66 67 66 66 66 66 66 66 63 61 59 58 63 64 68 67
72 72 71 71 71 72 72 72 73 71 71 72 72 73 72 71 71 71 70 69 70 69 68 68 66 65 65 64 64 63 63 63 62 62 62 63 65 65 63 62 63 64 63 62 62 62 64 64 66 66 65 66 64 65 66 64 61 59 58 60 64 63 65
71 72 71 71 71 71 72 72 72 72 72 72 72 71 72 72 70 70 69 69 69 68 67 66 66 66 65 64 64 63 64 63 64 63 62 63 63 63 61 60 61 61 61 60 60 61 62 62 61 61 61 62 62 62 62 61 61 58 56 54 57 60 63
69 69 70 71 70 71 71 72 71 71 71 71 72 71 71 71 70 70 68 69 69 68 67 67 66 65 64 64 64 63 64 64 62 62 62 62 60 61 61 60 60 61 60 59 59 59 60 59 60 60 60 61 61 60 60 59 58 58 56 53 55 58 60
66 68 69 70 69 69 69 70 70 69 70 70 71 71 71 71 71 71 70 70 69 68 68 66 66 65 65 65 64 63 62 61 61 61 62 62 62 62 60 60 60 60 60 58 57 58 58 58 58 57 57 57 58 58 57 57 57 57 56 55 55 55 58
66 68 69 69 69 69 69 69 69 69 69 68 69 69 70 69 69 70 70 68 67 67 67 66 65 64 64 64 64 63 61 60 60 60 61 61 61 61 61 61 60 60 59 58 57 57 57 56 55 55 56 55 56 56 55 55 56 55 55 56 57 57 56
67 68 69 70 69 67 67 67 68 68 67 66 66 68 69 68 68 69 69 68 67 66 66 65 64 64 64 63 62 61 61 60 59 59 59 60 60 61 60 60 60 60 60 60 58 56 55 54 55 54 55 55 55 54 54 54 54 55 55 56 55 55 56
69 69 68 68 67 66 66 66 66 65 64 65 65 67 69 70 69 68 69 66 67 65 64 63 64 63 62 62 62 61 60 59 58 58 59 60 60 60 60 60 60 59 57 53 51 50 51 50 52 52 54 55 54 53 52 52 52 53 53 53 53 55 55
68 68 68 67 66 65 64 64 63 62 62 63 63 65 67 68 69 68 67 67 66 64 63 63 56 49 50 57 59 60 59 59 59 58 57 57 57 57 57 57 57 54 51 51 51 50 48 49 49 51 52 52 52 51 50 50 51 52 51 50 52 53 53
68 67 68 67 64 64 64 63 62 61 60 62 62 63 63 65 66 67 67 66 64 63 62 60 45 42 42 44 53 57 58 59 58 57 57 56 55 55 56 56 55 54 54 53 54 49 48 47 47 46 47 48 48 50 50 49 50 51 51 51 52 52 52
67 67 67 67 66 65 63 62 61 60 59 58 60 62 63 65 65 65 65 65 63 63 62 48 41 41 41 41 45 53 56 58 57 56 57 56 55 55 55 54 54 54 54 54 54 55 52 48 45 45 44 44 45 45 45 49 50 50 50 50 50 51 51
67 66 67 67 66 63 61 59 60 60 59 59 59 61 64 64 64 64 64 64 63 63 62 43 41 40 41 40 39 45 55 59 57 57 56 55 54 54 54 54 54 54 54 52 54 56 56 56 52 47 46 46 45 44 41 40 43 50 52 50 49 50 51
65 65 66 66 63 61 60 58 59 60 60 59 60 61 64 64 64 64 64 64 63 63 61 44 40 40 40 38 39 41 55 57 56 56 55 54 54 54 54 53 52 53 55 55 55 55 55 55 55 55 55 57 57 55 48 42 41 41 47 51 50 49 52
64 64 64 63 61 60 58 58 59 60 60 59 60 63 64 64 64 64 64 63 63 62 59 40 40 39 39 39 39 40 54 55 55 56 55 54 54 54 54 53 53 53 54 55 52 50 52 52 52 53 55 55 56 55 55 56 56 57 55 54 54 54 54
62 63 60 59 58 57 58 60 61 62 61 61 64 66 65 66 64 63 63 63 62 61 55 38 40 39 39 39 38 50 56 56 56 56 55 55 55 56 55 54 53 53 54 55 44 40 43 48 51 54 55 55 55 56 57 57 51 51 54 55 54 53 52
63 63 62 61 60 60 59 60 60 62 62 62 63 64 65 65 65 64 63 62 61 61 57 43 39 39 39 38 42 54 59 58 58 56 56 56 56 56 56 55 54 55 55 54 41 39 38 41 49 53 55 55 55 56 58 59 46 42 42 42 43 42 42
61 61 61 61 62 61 62 63 62 62 61 61 62 65 65 65 65 65 63 62 62 60 60 47 39 39 39 38 43 54 60 60 58 57 57 57 57 58 56 51 52 55 55 54 38 39 37 43 50 52 53 54 54 55 57 58 57 56 47 43 42 41 41
61 61 63 64 64 61 62 62 59 56 57 61 63 65 66 65 64 64 64 62 58 59 60 49 39 39 39 39 44 54 60 62 59 58 58 58 58 59 59 54 49 51 52 46 37 38 37 42 49 51 52 52 53 54 55 54 53 53 55 56 57 56 53
62 62 61 58 55 56 55 53 54 56 55 59 60 62 59 62 62 63 63 62 59 59 59 58 47 39 40 39 38 50 58 59 59 59 60 61 60 59 58 58 49 39 39 38 37 37 38 37 45 49 52 53 53 51 53 51 52 52 54 56 59 59 58
63 61 61 58 56 55 55 55 55 55 54 57 59 59 58 60 61 62 63 62 61 59 59 59 51 38 39 39 39 40 55 58 58 58 59 58 59 59 59 59 58 41 38 38 37 37 37 37 38 46 51 52 50 46 42 48 51 50 55 57 58 60 60
66 64 63 62 59 57 58 58 57 56 54 54 56 58 61 62 63 62 62 61 61 60 58 54 56 40 40 38 39 37 49 57 55 57 57 59 59 60 59 59 58 43 37 38 37 37 37 37 37 45 48 37 36 35 44 48 51 56 58 58 59 59 61
64 64 63 62 60 57 58 58 58 57 56 56 57 59 61 61 61 61 60 60 61 60 59 55 47 49 39 39 38 39 37 44 41 50 54 56 57 58 59 58 53 38 37 37 37 37 37 36 38 46 34 36 37 36 38 50 55 56 57 57 57 57 57
65 65 64 63 62 60 58 58 58 57 58 59 60 60 60 61 61 60 59 59 60 60 60 60 48 45 45 37 39 37 38 36 37 49 53 56 58 58 58 56 48 36 37 37 36 36 37 38 44 37 36 37 36 38 48 54 57 56 55 56 56 57 57
MSLP
1018.13 1018.55 1018.67 1018.69 1018.65 1018.69 1018.91 1018.93 1018.89 1018.95 1018.87 1018.83 1018.87 1018.79 1018.75 1018.79 1018.85 1018.85 1018.83 1018.83 1018.81 1018.75 1018.71 1018.81 1018.89 1018.85 1018.77 1018.79 1018.85 1018.81 1018.81 1018.79 1018.75 1018.87 1018.71 1018.39 1018.67 1018.43 1018.01 1018.19 1018.07 1017.85 1017.81 1017.95 1018.01 1018.45 1018.47 1018.63 1017.89 1016.73 1016.43 1016.37 1016.21 1016.19 1016.21 1016.05 1015.67 1015.57 1015.75 1015.83 1015.55 1015.33 1015.25
1018.09 1018.37 1018.41 1018.51 1018.71 1018.79 1019.03 1019.01 1019.01 1019.13 1019.15 1019.11 1019.01 1019.03 1018.93 1018.89 1018.91 1018.93 1018.93 1018.93 1018.93 1018.89 1018.71 1018.73 1018.81 1018.81 1018.95 1018.99 1018.99 1019.07 1019.07 1019.03 1018.99 1018.99 1019.03 1018.85 1018.73 1018.61 1018.45 1018.31 1018.07 1018.01 1017.59 1017.51 1017.61 1017.79 1018.23 1018.23 1017.71 1017.35 1016.95 1016.29 1016.49 1016.47 1016.33 1016.01 1015.83 1015.67 1015.55 1015.53 1015.45 1015.41 1015.35
1018.01 1018.21 1018.27 1018.65 1018.79 1018.87 1019.05 1019.11 1019.11 1019.11 1019.15 1019.27 1019.25 1019.15 1019.09 1019.01 1019.05 1019.01 1018.95 1019.09 1019.11 1019.07 1018.91 1018.93 1019.03 1019.05 1019.03 1019.01 1019.07 1019.11 1019.17 1019.19 1019.17 1019.09 1019.11 1019.01 1018.91 1018.77 1018.65 1018.55 1018.51 1018.13 1017.97 1017.81 1017.67 1017.67 1017.65 1017.63 1018.05 1017.57 1017.01 1017.05 1017.39 1016.61 1016.07 1016.27 1015.95 1015.47 1015.23 1015.37 1015.47 1015.21 1014.95
1018.01 1018.23 1018.51 1018.77 1018.75 1018.89 1018.99 1019.09 1019.11 1019.13 1019.11 1019.25 1019.31 1019.35 1019.25 1019.19 1019.25 1019.19 1019.17 1019.15 1019.15 1019.23 1019.17 1019.15 1019.13 1019.09 1019.05 1019.09 1019.09 1019.17 1019.17 1019.27 1019.19 1019.21 1019.23 1019.07 1019.01 1018.85 1018.77 1018.59 1018.47 1018.23 1018.29 1018.25 1017.93 1017.63 1017.75 1018.01 1017.91 1017.63 1017.23 1016.85 1016.81 1016.91 1016.35 1015.77 1015.77 1015.59 1015.47 1015.29 1015.25 1014.95 1014.71
1017.85 1018.11 1018.39 1018.63 1018.65 1018.79 1018.95 1019.09 1019.07 1019.15 1019.25 1019.31 1019.33 1019.39 1019.41 1019.33 1019.31 1019.29 1019.25 1019.19 1019.23 1019.25 1019.23 1019.15 1019.21 1019.13 1019.21 1019.17 1019.17 1019.17 1019.13 1019.15 1019.15 1019.21 1019.23 1019.25 1019.13 1018.95 1018.79 1018.55 1018.45 1018.33 1018.27 1018.27 1017.85 1017.79 1018.03 1018.01 1018.05 1017.99 1017.83 1017.35 1017.05 1016.61 1015.87 1015.83 1015.89 1015.95 1015.73 1015.39 1014.89 1014.75 1014.61
1017.69 1017.85 1018.07 1018.35 1018.41 1018.67 1018.79 1018.95 1019.03 1019.13 1019.21 1019.31 1019.35 1019.37 1019.47 1019.41 1019.29 1019.43 1019.39 1019.41 1019.37 1019.39 1019.35 1019.23 1019.21 1019.25 1019.31 1019.25 1019.21 1019.25 1019.19 1019.21 1019.09 1019.15 1019.17 1019.13 1019.11 1019.09 1018.87 1018.61 1018.51 1018.31 1018.19 1017.89 1017.85 1018.01 1017.95 1017.95 1018.07 1018.27 1017.75 1017.47 1017.71 1017.13 1016.45 1016.19 1015.99 1015.41 1015.35 1015.39 1015.07 1014.51 1014.13
1017.61 1017.69 1017.83 1018.09 1018.31 1018.43 1018.61 1018.85 1018.87 1018.93 1019.07 1019.25 1019.31 1019.35 1019.23 1019.23 1019.33 1019.43 1019.51 1019.51 1019.49 1019.47 1019.43 1019.45 1019.41 1019.35 1019.39 1019.23 1019.19 1019.25 1019.29 1019.13 1019.07 1019.09 1019.01 1018.93 1018.93 1018.91 1018.81 1018.75 1018.49 1018.31 1018.21 1018.13 1018.13 1018.09 1018.15 1018.19 1018.15 1018.09 1017.99 1017.75 1017.55 1017.39 1016.69 1016.29 1015.71 1015.91 1015.35 1014.97 1014.81 1014.61 1014.43
1017.43 1017.53 1017.65 1017.87 1018.19 1018.43 1018.55 1018.73 1018.79 1018.83 1018.95 1019.05 1019.17 1019.27 1019.31 1019.39 1019.45 1019.45 1019.51 1019.53 1019.61 1019.59 1019.57 1019.55 1019.47 1019.33 1019.45 1019.37 1019.15 1019.19 1019.21 1019.09 1019.13 1019.11 1018.99 1018.89 1018.89 1018.77 1018.73 1018.73 1018.61 1018.47 1018.31 1018.19 1018.17 1018.23 1017.97 1017.89 1017.95 1017.97 1018.15 1018.25 1017.75 1017.35 1017.09 1016.31 1015.83 1015.83 1015.75 1015.21 1014.77 1014.49 1014.19
1017.29 1017.35 1017.55 1017.83 1018.13 1018.31 1018.51 1018.67 1018.83 1018.83 1018.85 1018.95 1019.03 1019.17 1019.29 1019.29 1019.43 1019.49 1019.47 1019.59 1019.65 1019.67 1019.67 1019.65 1019.59 1019.43 1019.55 1019.51 1019.33 1019.25 1019.27 1019.01 1019.11 1019.11 1018.91 1018.79 1018.77 1018.75 1018.67 1018.57 1018.59 1018.41 1018.17 1018.17 1018.13 1018.09 1018.11 1018.09 1018.03 1017.97 1018.05 1018.27 1018.31 1017.95 1017.23 1017.01 1016.43 1015.87 1015.25 1015.49 1014.87 1014.57 1014.51
1017.39 1017.41 1017.57 1017.85 1018.09 1018.29 1018.43 1018.57 1018.69 1018.71 1018.83 1018.87 1019.05 1019.11 1019.27 1019.33 1019.41 1019.45 1019.51 1019.63 1019.77 1019.77 1019.77 1019.73 1019.61 1019.55 1019.59 1019.53 1019.41 1019.39 1019.31 1019.15 1019.11 1018.99 1018.89 1018.87 1018.69 1018.61 1018.55 1018.59 1018.53 1018.35 1018.17 1018.17 1018.31 1018.35 1018.27 1018.17 1018.07 1018.01 1017.99 1018.11 1018.09 1018.19 1017.99 1017.59 1016.99 1016.59 1015.67 1015.25 1015.55 1014.85 1014.71
1017.37 1017.31 1017.43 1017.67 1017.89 1018.17 1018.37 1018.47 1018.55 1018.73 1018.81 1018.81 1018.93 1019.05 1019.15 1019.33 1019.43 1019.53 1019.55 1019.65 1019.75 1019.81 1019.85 1019.77 1019.75 1019.65 1019.61 1019.49 1019.41 1019.33 1019.19 1019.29 1019.21 1018.93 1018.81 1018.75 1018.73 1018.67 1018.61 1018.59 1018.49 1018.47 1018.25 1018.47 1018.53 1018.47 1018.51 1018.41 1018.27 1018.07 1017.95 1017.83 1017.87 1018.09 1017.97 1017.93 1017.21 1016.77 1016.37 1015.93 1015.79 1015.61 1015.05
1017.35 1017.27 1017.31 1017.45 1017.67 1017.99 1018.23 1018.31 1018.47 1018.55 1018.65 1018.73 1018.83 1018.99 1019.09 1019.21 1019.31 1019.41 1019.47 1019.53 1019.63 1019.75 1019.79 1019.81 1019.79 1019.65 1019.65 1019.57 1019.45 1019.39 1019.25 1019.35 1019.25 1019.09 1018.87 1018.93 1018.89 1018.83 1018.77 1018.73 1018.67 1018.69 1018.61 1018.63 1018.67 1018.67 1018.57 1018.53 1018.35 1018.09 1017.89 1017.85 1017.77 1017.81 1017.75 1017.69 1017.43 1016.51 1016.61 1016.63 1016.19 1015.79 1015.61
1017.27 1017.23 1017.27 1017.41 1017.61 1017.79 1017.97 1018.15 1018.29 1018.45 1018.55 1018.53 1018.67 1018.81 1018.91 1019.03 1019.19 1019.31 1019.29 1019.39 1019.51 1019.59 1019.65 1019.71 1019.73 1019.71 1019.65 1019.57 1019.55 1019.47 1019.41 1019.47 1019.25 1019.09 1018.91 1018.85 1018.99 1019.03 1018.95 1018.85 1018.71 1018.65 1018.71 1018.71 1018.63 1018.45 1018.37 1018.39 1018.37 1018.31 1018.09 1017.95 1017.77 1017.75 1017.69 1017.57 1017.31 1016.81 1016.69 1016.69 1016.43 1016.21 1016.05
1017.23 1017.15 1017.29 1017.39 1017.49 1017.57 1017.71 1017.89 1018.05 1018.17 1018.29 1018.41 1018.45 1018.67 1018.77 1018.91 1019.01 1019.17 1019.23 1019.33 1019.35 1019.43 1019.57 1019.61 1019.69 1019.71 1019.63 1019.59 1019.63 1019.69 1019.63 1019.45 1019.35 1019.11 1019.17 1019.23 1019.07 1019.05 1019.07 1018.99 1018.85 1018.69 1018.57 1018.73 1018.77 1018.59 1018.29 1018.11 1018.03 1017.97 1017.89 1017.77 1017.69 1017.55 1017.55 1017.43 1017.13 1016.63 1016.35 1016.33 1016.33 1016.17 1015.87
1017.07 1017.01 1017.21 1017.31 1017.39 1017.45 1017.59 1017.75 1017.87 1017.99 1018.17 1018.19 1018.27 1018.43 1018.49 1018.73 1018.91 1019.05 1019.15 1019.19 1019.33 1019.37 1019.43 1019.45 1019.63 1019.67 1019.63 1019.69 1019.73 1019.73 1019.63 1019.55 1019.49 1019.37 1019.27 1019.17 1018.99 1018.99 1018.99 1018.95 1018.83 1018.77 1018.75 1018.73 1018.83 1018.73 1018.37 1018.27 1018.07 1017.95 1017.89 1017.69 1017.49 1017.35 1017.29 1017.33 1016.99 1016.87 1016.59 1016.41 1016.35 1016.09 1015.93
1016.93 1016.97 1017.11 1017.19 1017.27 1017.31 1017.47 1017.61 1017.71 1017.93 1017.97 1018.01 1018.11 1018.15 1018.25 1018.53 1018.75 1018.89 1019.07 1019.21 1019.23 1019.33 1019.37 1019.43 1019.57 1019.63 1019.65 1019.75 1019.75 1019.63 1019.61 1019.51 1019.47 1019.41 1019.21 1019.03 1018.93 1018.81 1018.97 1019.05 1018.93 1018.79 1018.81 1018.91 1018.93 1018.75 1018.49 1018.29 1018.01 1017.73 1017.67 1017.63 1017.55 1017.25 1017.09 1017.19 1017.15 1016.87 1016.67 1016.43 1016.35 1016.23 1016.01
1016.67 1016.77 1016.91 1016.95 1017.11 1017.17 1017.25 1017.37 1017.49 1017.67 1017.71 1017.85 1018.01 1018.13 1018.21 1018.39 1018.61 1018.81 1018.95 1019.11 1019.19 1019.31 1019.33 1019.41 1019.41 1019.51 1019.63 1019.79 1019.77 1019.61 1019.49 1019.45 1019.29 1019.35 1019.43 1019.35 1019.19 1019.25 1019.25 1019.27 1019.17 1019.09 1019.05 1019.13 1019.07 1018.89 1018.63 1018.51 1018.49 1018.43 1018.35 1018.11 1017.95 1017.87 1017.75 1017.73 1017.67 1017.63 1017.51 1017.59 1017.23 1016.89 1016.21
1016.57 1016.59 1016.63 1016.67 1016.91 1017.05 1017.13 1017.19 1017.29 1017.45 1017.57 1017.75 1017.85 1018.07 1018.31 1018.39 1018.59 1018.67 1018.87 1018.97 1019.05 1019.23 1019.31 1019.29 1019.33 1019.43 1019.59 1019.63 1019.65 1019.59 1019.53 1019.45 1019.55 1019.49 1019.37 1019.41 1019.45 1019.39 1019.35 1019.35 1019.25 1019.21 1019.17 1019.15 1019.09 1019.09 1018.85 1018.83 1018.81 1018.71 1018.55 1018.27 1018.13 1017.99 1017.99 1017.99 1017.93 1017.87 1017.75 1017.63 1017.23 1016.91 1016.61
1016.61 1016.57 1016.63 1016.57 1016.71 1016.83 1016.93 1017.05 1017.21 1017.35 1017.41 1017.59 1017.73 1017.93 1018.11 1018.33 1018.47 1018.53 1018.63 1018.75 1018.97 1019.11 1019.19 1019.33 1019.31 1019.37 1019.41 1019.41 1019.47 1019.59 1019.71 1019.79 1019.79 1019.73 1019.59 1019.47 1019.29 1019.27 1019.35 1019.35 1019.25 1019.17 1019.11 1019.21 1019.15 1019.05 1018.97 1019.05 1019.05 1019.03 1018.95 1018.85 1018.59 1018.39 1018.37 1018.23 1018.07 1017.83 1017.65 1017.37 1017.19 1016.91 1016.69
1016.45 1016.29 1016.25 1016.33 1016.51 1016.65 1016.83 1016.95 1017.09 1017.23 1017.31 1017.53 1017.73 1017.87 1018.03 1018.31 1018.53 1018.51 1018.51 1018.77 1018.99 1019.13 1019.15 1019.23 1019.31 1019.41 1019.33 1019.35 1019.41 1019.47 1019.75 1019.83 1019.91 1019.79 1019.69 1019.61 1019.47 1019.33 1019.29 1019.19 1019.15 1019.15 1019.23 1019.23 1019.25 1019.11 1019.05 1019.19 1019.31 1019.23 1019.05 1018.91 1018.71 1018.55 1018.43 1018.27 1018.05 1017.77 1017.47 1017.13 1016.73 1016.55 1016.41
1016.09 1015.99 1015.97 1016.15 1016.37 1016.61 1016.81 1016.95 1017.05 1017.09 1017.23 1017.47 1017.71 1017.83 1017.97 1018.27 1018.53 1018.59 1018.59 1018.79 1018.93 1019.15 1019.21 1019.21 1019.27 1019.27 1019.29 1019.39 1019.55 1019.67 1019.73 1019.79 1019.83 1019.81 1019.75 1019.59 1019.41 1019.27 1019.25 1019.11 1019.07 1019.11 1019.09 1019.05 1019.17 1019.37 1019.53 1019.51 1019.31 1019.21 1019.01 1018.89 1018.71 1018.59 1018.43 1018.23 1018.09 1017.79 1017.35 1016.99 1016.67 1016.43 1016.31
1015.65 1015.71 1015.91 1016.07 1016.29 1016.51 1016.71 1016.95 1017.17 1017.33 1017.39 1017.57 1017.73 1017.73 1017.83 1018.07 1018.41 1018.51 1018.61 1018.83 1018.91 1019.11 1019.21 1019.23 1019.21 1019.37 1019.43 1019.35 1019.33 1019.55 1019.79 1019.93 1019.95 1019.85 1019.69 1019.47 1019.25 1019.29 1019.31 1019.21 1019.15 1019.13 1019.49 1019.97 1020.31 1020.37 1020.31 1020.33 1020.11 1019.65 1019.23 1019.05 1018.99 1018.95 1018.83 1018.65 1018.41 1018.11 1017.71 1017.39 1017.07 1016.69 1016.43
1015.43 1015.51 1015.69 1015.83 1016.11 1016.37 1016.57 1016.79 1017.09 1017.45 1017.51 1017.53 1017.65 1017.65 1017.81 1018.03 1018.23 1018.41 1018.55 1018.75 1018.91 1019.07 1019.21 1019.25 1019.89 1020.27 1020.41 1020.15 1019.85 1019.65 1019.77 1019.83 1019.75 1019.69 1019.73 1019.63 1019.51 1019.45 1019.59 1019.55 1019.35 1019.73 1020.13 1020.17 1020.13 1020.21 1020.31 1020.31 1020.29 1020.07 1019.79 1019.63 1019.45 1019.29 1019.17 1019.01 1018.75 1018.35 1018.03 1017.73 1017.29 1016.85 1016.47
1015.09 1015.29 1015.35 1015.59 1015.91 1016.21 1016.41 1016.67 1017.01 1017.33 1017.51 1017.51 1017.47 1017.55 1017.87 1018.13 1018.25 1018.29 1018.39 1018.63 1018.87 1019.03 1019.09 1019.53 1020.33 1020.57 1020.71 1020.85 1020.59 1020.17 1019.85 1019.69 1019.71 1019.79 1019.77 1019.75 1019.69 1019.61 1019.59 1019.55 1019.61 1019.67 1019.69 1019.63 1019.61 1019.93 1020.01 1020.01 1020.05 1020.07 1020.07 1020.05 1019.97 1019.79 1019.41 1019.17 1018.83 1018.47 1018.17 1017.77 1017.35 1017.05 1016.71
1014.71 1014.85 1015.05 1015.27 1015.63 1015.93 1016.29 1016.69 1016.97 1017.23 1017.49 1017.55 1017.43 1017.51 1017.79 1017.95 1018.09 1018.19 1018.37 1018.53 1018.73 1018.87 1018.99 1019.97 1020.37 1020.65 1020.81 1020.95 1021.01 1020.71 1020.29 1019.75 1019.71 1019.73 1019.57 1019.73 1019.65 1019.55 1019.61 1019.69 1019.65 1019.61 1019.55 1019.63 1019.67 1019.41 1019.55 1019.71 1019.75 1019.77 1019.79 1019.73 1019.65 1019.57 1019.57 1019.37 1019.05 1018.69 1018.39 1018.07 1017.69 1017.37 1017.21
1014.43 1014.65 1014.75 1014.81 1015.31 1015.75 1016.23 1016.65 1016.87 1017.13 1017.41 1017.37 1017.35 1017.49 1017.55 1017.77 1017.99 1018.13 1018.37 1018.49 1018.59 1018.75 1018.99 1020.15 1020.35 1020.65 1020.83 1021.01 1021.21 1021.17 1020.25 1019.53 1019.67 1019.53 1019.65 1019.83 1019.85 1019.73 1019.59 1019.55 1019.59 1019.61 1019.53 1019.63 1019.41 1019.23 1019.19 1019.07 1019.09 1019.27 1019.23 1019.13 1019.05 1019.05 1019.13 1019.27 1019.31 1019.07 1018.63 1018.35 1017.97 1017.53 1017.33
1014.47 1014.57 1014.45 1014.79 1015.41 1015.77 1016.21 1016.49 1016.71 1016.91 1017.07 1017.03 1017.19 1017.39 1017.41 1017.59 1017.75 1017.89 1018.09 1018.21 1018.37 1018.51 1018.85 1020.03 1020.31 1020.57 1020.81 1021.05 1021.21 1021.25 1020.27 1019.69 1019.77 1019.65 1019.75 1019.83 1019.79 1019.65 1019.61 1019.75 1019.67 1019.55 1019.31 1019.31 1019.21 1019.23 1019.27 1019.19 1019.03 1018.83 1018.51 1018.19 1018.01 1018.15 1018.49 1018.67 1018.73 1018.75 1018.61 1018.29 1018.01 1017.71 1017.21
1014.41 1014.53 1014.61 1014.85 1015.33 1015.73 1016.09 1016.39 1016.63 1016.73 1016.81 1016.85 1016.99 1017.01 1017.09 1017.29 1017.45 1017.61 1017.85 1018.05 1018.11 1018.37 1018.79 1019.87 1020.15 1020.49 1020.77 1021.05 1021.15 1021.17 1020.21 1019.81 1019.75 1019.57 1019.69 1019.77 1019.75 1019.73 1019.73 1019.73 1019.65 1019.51 1019.29 1019.17 1019.63 1020.01 1019.79 1019.65 1019.41 1018.91 1018.43 1018.17 1018.11 1018.07 1018.01 1017.87 1017.71 1017.65 1017.77 1017.71 1017.47 1017.25 1017.05
1014.33 1014.49 1014.87 1015.17 1015.49 1015.71 1015.87 1016.05 1016.13 1016.25 1016.41 1016.45 1016.51 1016.57 1016.69 1016.85 1017.13 1017.41 1017.59 1017.87 1018.03 1018.07 1018.91 1019.67 1020.03 1020.39 1020.75 1020.97 1021.15 1020.65 1019.63 1019.47 1019.43 1019.33 1019.43 1019.53 1019.49 1019.35 1019.41 1019.49 1019.53 1019.39 1019.33 1019.21 1020.31 1020.41 1020.55 1020.29 1019.59 1018.65 1018.19 1018.07 1017.97 1017.79 1017.53 1017.39 1017.55 1017.77 1017.89 1017.89 1017.79 1017.67 1017.47
1014.07 1014.29 1014.53 1014.83 1015.13 1015.31 1015.49 1015.63 1015.91 1015.93 1015.93 1016.03 1016.19 1016.29 1016.35 1016.53 1016.79 1017.09 1017.37 1017.63 1017.77 1017.81 1018.47 1019.51 1019.91 1020.33 1020.63 1020.87 1020.93 1019.83 1018.89 1018.99 1018.91 1019.15 1019.17 1019.07 1019.15 1019.19 1019.25 1019.39 1019.39 1019.25 1019.11 1019.37 1020.33 1020.39 1020.63 1020.61 1019.63 1018.81 1018.21 1018.01 1017.85 1017.55 1016.93 1016.81 1017.51 1017.71 1017.77 1017.77 1017.71 1017.57 1017.41
1014.09 1014.13 1014.39 1014.45 1014.47 1014.63 1014.75 1014.97 1015.33 1015.57 1015.77 1015.93 1016.07 1015.97 1016.07 1016.31 1016.57 1016.77 1017.09 1017.31 1017.41 1017.63 1017.81 1019.05 1019.77 1020.17 1020.49 1020.69 1020.57 1019.63 1018.59 1018.33 1018.59 1018.79 1018.75 1018.99 1018.87 1018.81 1019.05 1019.55 1019.67 1019.25 1019.01 1019.29 1020.27 1020.49 1020.69 1020.49 1019.57 1018.87 1018.39 1018.05 1017.85 1017.49 1017.11 1017.13 1017.33 1017.23 1017.15 1017.19 1017.11 1016.99 1016.89
1013.95 1014.03 1013.95 1013.97 1013.95 1014.33 1014.71 1015.03 1015.49 1015.75 1016.01 1015.93 1015.77 1015.77 1015.85 1016.07 1016.33 1016.51 1016.77 1016.99 1017.43 1017.67 1017.65 1018.81 1019.59 1019.93 1020.27 1020.51 1020.49 1019.67 1018.57 1017.89 1018.07 1018.33 1018.25 1018.29 1018.63 1018.39 1018.41 1019.05 1019.59 1019.57 1019.61 1019.99 1020.47 1020.65 1020.73 1020.53 1019.71 1019.03 1018.65 1018.27 1017.71 1017.45 1017.29 1017.65 1017.55 1017.29 1016.91 1016.51 1016.03 1015.97 1015.93
1013.67 1013.87 1014.15 1014.47 1014.81 1014.93 1015.07 1015.45 1015.81 1015.99 1015.91 1015.83 1015.95 1015.95 1016.17 1016.09 1016.23 1016.29 1016.53 1016.85 1017.35 1017.63 1017.63 1018.05 1019.17 1019.67 1020.01 1020.27 1020.43 1019.91 1018.65 1018.23 1017.81 1017.71 1017.81 1017.39 1017.53 1017.91 1018.29 1018.45 1019.37 1019.93 1020.25 1020.45 1020.55 1020.63 1020.67 1020.75 1020.27 1019.41 1018.81 1018.17 1017.83 1017.73 1017.95 1018.09 1017.85 1017.53 1016.97 1016.15 1015.25 1015.13 1015.13
1013.49 1013.77 1013.95 1014.19 1014.49 1014.85 1015.19 1015.37 1015.51 1015.63 1015.79 1015.95 1016.11 1016.15 1016.35 1016.23 1016.19 1016.17 1016.31 1016.63 1016.89 1017.31 1017.51 1017.65 1018.63 1019.37 1019.73 1020.03 1020.25 1020.31 1019.03 1018.43 1018.17 1018.03 1017.85 1017.99 1017.81 1017.69 1017.77 1017.89 1018.35 1019.99 1020.25 1020.37 1020.51 1020.57 1020.61 1020.61 1020.51 1019.91 1018.89 1018.33 1018.63 1019.03 1019.21 1018.43 1017.51 1017.23 1016.51 1015.93 1015.31 1014.57 1014.37
1013.17 1013.31 1013.51 1013.71 1014.01 1014.33 1014.55 1014.85 1015.17 1015.47 1015.71 1016.15 1016.51 1016.33 1015.85 1015.69 1015.69 1015.85 1016.09 1016.51 1016.65 1016.99 1017.37 1017.79 1017.95 1019.09 1019.39 1019.79 1020.05 1020.25 1019.57 1018.53 1018.67 1018.33 1018.11 1017.83 1017.59 1017.43 1017.59 1017.85 1018.21 1019.73 1020.05 1020.31 1020.45 1020.55 1020.53 1020.49 1020.35 1019.85 1019.13 1019.53 1019.53 1019.47 1019.09 1018.31 1017.49 1016.53 1015.89 1015.45 1015.19 1014.65 1014.11
1013.23 1013.27 1013.39 1013.57 1013.81 1014.09 1014.27 1014.45 1014.69 1015.07 1015.39 1015.61 1015.75 1015.55 1015.39 1015.35 1015.43 1015.61 1015.91 1016.17 1016.35 1016.67 1016.97 1017.63 1017.97 1018.39 1019.11 1019.47 1019.83 1019.97 1019.99 1019.65 1019.61 1019.31 1018.65 1018.05 1017.73 1017.55 1017.67 1018.05 1018.77 1019.77 1019.97 1020.25 1020.43 1020.43 1020.41 1020.33 1019.99 1019.41 1019.55 1019.53 1019.45 1019.23 1019.01 1017.81 1016.77 1016.23 1015.83 1015.53 1015.29 1014.97 1014.57
1012.89 1012.97 1013.11 1013.33 1013.51 1013.77 1014.01 1014.09 1014.25 1014.45 1014.73 1014.83 1014.77 1014.89 1014.91 1014.99 1015.11 1015.23 1015.53 1015.71 1015.91 1016.17 1016.57 1016.75 1017.69 1018.15 1018.63 1019.19 1019.47 1019.73 1019.83 1019.89 1019.91 1019.35 1018.85 1018.21 1017.75 1017.73 1017.71 1018.13 1019.15 1019.93 1020.05 1020.15 1020.25 1020.21 1020.11 1020.11 1019.51 1019.45 1019.53 1019.41 1019.09 1018.81 1018.01 1016.81 1016.19 1015.95 1015.91 1015.49 1015.11 1014.81 1014.61
Wind_Speed
3 5 4 4 3 4 4 4 3 3 3 3 3 3 4 4 3 3 3 2 2 2 1 2 1 2 2 2 2 3 3 3 4 4 5 4 4 4 3 5 6 6 6 7 7 7 8 9 7 6 8 8 8 6 5 7 7 5 4 5 7 6 5
5 5 5 4 4 4 4 3 3 3 3 2 2 2 2 3 2 2 2 2 2 1 0 1 1 2 2 2 2 2 2 2 3 3 4 5 4 5 4 5 5 5 6 6 6 7 8 9 9 9 7 5 5 6 8 7 5 6 7 6 5 6 6
6 5 5 5 5 4 4 4 3 3 3 3 2 2 2 2 2 2 2 2 1 1 2 3 1 1 1 2 2 2 1 1 2 3 3 4 4 5 5 5 6 5 5 5 6 6 8 9 10 9 8 8 8 6 4 6 9 8 5 5 6 8 7
8 7 6 6 5 5 4 4 4 3 3 3 3 2 2 3 2 2 2 2 2 1 1 1 1 2 2 1 1 1 1 2 2 3 3 3 4 4 5 4 5 5 5 5 5 5 5 6 7 8 8 8 8 8 7 7 6 6 7 7 8 8 7
9 7 7 7 6 6 5 5 4 4 4 3 3 3 2 2 2 2 2 2 3 2 1 1 1 1 1 2 2 2 2 2 2 2 3 4 4 4 5 4 4 5 5 6 6 5 5 6 6 8 8 8 9 9 7 4 6 8 9 9 7 7 8
9 8 8 7 6 6 6 5 5 5 5 4 3 3 3 2 2 2 2 2 2 2 2 2 1 1 2 2 2 3 2 4 3 3 4 3 4 4 4 4 5 5 5 5 5 5 5 6 6 8 8 7 9 9 8 8 7 5 5 7 8 8 7
9 8 7 7 7 6 5 6 5 5 5 4 4 3 3 3 3 3 2 3 2 2 2 2 2 3 3 4 3 3 4 4 4 5 5 5 4 4 4 4 4 4 4 5 6 5 6 6 7 7 8 8 8 10 8 8 8 7 5 4 5 6 7
8 8 7 7 7 7 6 6 5 5 5 5 4 3 3 3 3 3 3 3 3 3 3 3 3 1 3 4 4 3 4 3 4 5 5 6 5 5 5 5 4 5 5 4 4 5 6 6 6 7 8 10 9 8 8 8 8 8 8 7 6 7 5
8 8 7 7 6 6 6 6 6 5 5 5 4 4 4 3 3 3 3 4 2 3 3 3 3 4 4 4 4 4 5 3 4 5 5 5 6 6 7 6 6 6 4 4 5 5 6 6 6 6 7 8 9 10 8 9 8 8 6 7 6 6 5
9 9 9 9 8 7 7 6 6 6 6 5 5 4 4 4 3 2 3 2 1 1 2 3 4 4 4 4 3 4 4 4 5 5 4 5 5 5 6 6 6 6 6 6 6 6 7 6 6 6 6 7 7 9 9 9 9 8 7 6 6 3 5
8 9 9 10 9 8 7 7 6 6 6 5 5 5 5 5 4 3 2 2 1 1 2 3 4 4 5 5 4 5 4 4 5 5 4 4 5 5 5 6 6 6 6 5 6 7 7 7 8 8 7 7 7 9 9 11 11 8 9 8 8 8 8
8 9 9 10 9 9 9 8 7 7 6 6 5 5 5 5 4 3 2 2 1 1 2 3 4 4 5 5 5 5 4 4 5 5 4 3 4 4 5 6 6 6 6 7 7 7 8 8 8 8 8 8 8 9 11 11 13 8 6 8 8 9 10
9 9 9 9 9 9 9 8 8 7 7 6 6 6 5 4 4 3 3 2 2 1 2 3 4 5 5 5 5 5 4 5 5 4 4 3 3 4 5 6 6 6 6 7 8 8 8 8 8 9 9 9 10 10 11 12 13 13 8 9 10 10 12
10 9 9 9 8 8 8 8 7 6 7 6 6 6 5 4 4 3 3 2 2 2 2 3 3 5 5 5 4 4 5 4 5 4 3 4 4 4 5 7 7 7 7 8 8 8 9 9 9 9 9 9 10 10 11 12 13 14 10 7 9 10 10
9 9 9 9 8 8 8 7 7 7 7 6 6 6 5 4 3 3 3 2 2 2 3 3 3 4 5 5 3 2 3 4 4 4 4 5 4 4 5 6 7 7 8 9 9 10 9 9 10 10 10 10 10 10 10 12 12 12 13 9 9 9 10
10 10 10 9 9 8 8 8 7 7 7 6 6 5 5 5 4 4 3 3 3 2 3 3 3 4 4 3 4 4 3 4 5 6 6 6 6 5 6 6 7 7 6 7 8 8 9 9 9 10 10 9 10 11 10 11 12 13 14 12 11 11 10
12 11 11 9 10 9 8 7 7 7 7 5 6 5 4 5 5 4 4 3 3 3 3 3 3 3 3 3 4 5 4 5 5 6 6 6 6 6 6 7 7 7 7 7 8 7 7 7 7 7 8 8 9 9 9 9 10 11 11 12 10 10 11
11 11 11 10 10 10 9 8 7 7 6 6 5 5 5 5 5 5 4 4 3 2 3 3 4 2 2 2 4 5 6 6 6 6 6 6 6 6 7 7 7 7 7 8 7 7 7 7 7 8 8 8 8 8 8 8 9 10 11 12 12 10 11
11 12 12 11 11 10 9 9 8 7 7 6 6 5 5 5 5 5 4 3 2 2 2 2 3 2 3 3 4 5 6 6 7 7 7 7 7 7 7 7 7 7 7 7 7 7 7 8 7 8 8 8 8 8 8 9 9 10 11 12 12 12 10
13 13 13 12 10 10 10 9 9 9 7 6 6 6 5 5 4 4 3 2 3 2 3 3 2 2 3 3 4 5 6 7 7 7 7 7 7 7 7 7 7 7 7 7 7 7 7 7 7 8 8 8 8 8 8 8 9 10 11 12 12 11 11
13 13 12 12 11 9 7 8 8 7 7 6 6 6 6 6 5 4 3 3 2 2 3 2 2 2 2 2 4 5 6 7 7 7 8 8 8 7 7 7 6 6 6 6 6 6 6 6 6 7 6 7 7 8 8 8 9 9 10 10 11 11 10
13 12 11 11 10 8 8 7 6 6 6 6 5 6 6 6 6 5 4 4 4 3 2 1 1 1 3 3 3 5 6 6 7 8 8 8 7 6 6 5 5 5 5 6 7 7 7 7 6 6 7 7 7 8 8 8 8 9 10 10 11 10 10
12 13 11 11 9 8 8 8 8 6 7 7 7 6 6 6 6 5 5 4 3 2 2 1 6 7 5 5 5 5 5 6 7 7 7 6 6 5 5 5 4 3 5 5 5 4 5 6 7 7 8 8 8 8 8 9 9 9 10 11 11 11 11
12 14 12 9 8 8 8 8 8 8 7 7 7 7 6 7 7 6 5 4 4 3 3 4 9 7 6 4 3 5 6 7 7 6 6 5 5 5 5 4 4 4 4 4 4 8 7 7 7 7 7 9 9 9 10 11 10 10 10 11 11 11 11
12 12 12 12 10 9 8 8 8 9 8 7 7 8 9 9 8 6 4 4 4 4 2 9 9 8 6 5 3 4 6 6 5 5 5 4 4 4 4 4 4 3 3 4 6 4 8 10 10 8 8 10 12 13 11 9 9 9 10 10 11 11 11
9 11 12 13 11 9 9 9 9 10 10 9 8 9 9 9 8 7 6 6 5 4 4 10 10 8 7 4 2 5 7 5 5 5 4 4 4 4 4 4 4 4 3 5 5 4 5 6 4 9 13 13 14 15 13 11 12 10 10 11 11 12 10
9 12 12 11 8 9 9 10 10 10 8 8 9 9 10 10 8 8 7 6 5 5 4 10 10 8 7 4 4 6 7 4 4 4 4 4 4 4 3 3 4 3 3 3 3 3 6 7 8 8 7 6 5 4 8 14 14 14 13 9 10 12 12
8 8 8 9 8 8 9 9 11 10 9 10 10 11 11 10 9 8 7 6 5 5 5 12 10 9 7 4 5 7 7 4 4 4 4 4 4 4 4 3 3 4 3 3 5 7 7 7 8 7 6 6 6 6 6 6 6 5 5 7 10 12 13
8 8 7 7 8 9 10 11 13 11 10 9 10 10 10 9 9 8 7 7 6 6 7 12 10 9 7 5 6 7 6 4 4 4 3 4 4 4 3 3 2 3 3 1 8 8 6 7 8 6 5 5 5 5 5 4 4 4 6 8 10 11 12
7 7 9 10 11 11 11 11 10 10 10 10 11 10 10 9 8 8 8 8 7 5 7 10 11 9 7 7 6 8 4 4 4 4 4 3 4 3 3 3 2 3 3 3 8 8 6 8 7 7 6 6 6 6 6 2 9 10 9 10 12 15 16
6 7 9 11 11 12 12 11 9 7 9 9 10 10 9 8 8 8 8 8 6 5 5 11 12 10 8 8 8 7 5 4 3 4 4 3 4 3 2 4 3 3 3 3 10 6 5 7 7 7 7 7 7 6 6 5 6 6 7 12 15 16 17
7 6 6 7 7 8 6 6 6 7 7 9 9 9 9 8 8 8 8 7 7 6 4 10 11 11 9 8 7 7 5 4 4 4 4 4 4 3 4 9 7 1 3 6 5 3 5 7 7 7 8 8 7 7 5 8 9 9 9 9 7 6 7
7 7 6 3 2 3 5 6 8 7 6 6 5 6 7 7 8 7 7 7 7 7 6 7 11 11 10 9 9 8 6 4 5 4 4 3 2 4 3 2 9 8 5 3 1 3 4 5 7 8 8 7 6 7 8 10 9 9 9 10 9 6 7
8 8 8 7 6 6 7 8 8 8 7 6 7 8 8 8 8 8 7 7 7 7 7 7 11 13 11 9 8 7 6 5 4 4 4 4 5 4 4 3 4 8 6 4 2 3 6 5 8 8 8 6 6 8 11 10 10 11 9 9 9 8 6
6 6 7 8 8 8 9 9 9 9 8 7 7 10 11 10 9 8 7 7 7 8 8 8 7 12 11 10 8 8 7 4 4 4 4 4 5 3 2 2 2 7 5 2 1 4 5 7 8 9 3 6 8 10 9 9 9 8 7 7 7 8 7
6 5 7 8 9 9 9 10 10 11 11 12 14 14 12 10 9 8 8 7 7 8 7 8 6 8 12 10 10 9 9 8 4 5 5 5 4 3 1 2 5 9 4 1 4 5 6 7 11 3 6 8 11 12 12 8 7 6 6 6 6 6 7
7 7 7 8 9 10 10 10 11 9 11 12 12 12 11 10 10 9 9 8 8 7 8 6 10 9 10 12 10 9 8 7 6 6 6 6 4 3 3 1 6 5 2 3 5 8 9 9 6 7 9 10 12 12 8 7 5 5 6 6 6 6 6
Wind_Direction
140 132 139 124 113 116 115 118 115 105 83 75 78 73 90 94 85 91 89 75 65 64 66 76 47 27 11 43 17 3 352 339 329 314 308 303 293 289 267 285 270 264 263 257 261 271 285 285 270 247 250 247 252 249 263 271 268 271 265 262 265 263 267
135 144 145 143 138 128 127 117 99 101 93 74 77 88 75 81 91 78 67 65 48 39 350 101 25 25 360 358 348 350 346 342 334 324 302 296 303 294 303 268 268 271 270 261 262 259 264 272 270 266 260 248 264 266 261 263 271 272 265 259 264 277 271
148 147 153 144 145 150 133 133 132 127 120 124 109 87 89 86 72 77 82 70 77 34 339 19 33 312 339 336 352 343 328 308 314 311 317 315 302 300 291 298 291 282 264 263 257 258 257 255 272 280 282 279 272 268 263 261 264 261 257 254 256 257 265
154 156 153 158 152 156 143 136 132 122 117 112 117 117 105 96 88 61 40 65 71 57 28 33 358 353 3 358 349 322 321 329 330 321 288 286 293 289 290 290 289 284 296 293 298 297 298 289 287 283 285 283 284 282 269 271 282 283 284 283 274 265 261
159 162 164 159 161 153 146 142 135 135 130 129 134 120 123 112 104 93 85 57 51 24 45 56 14 33 6 343 330 326 321 314 283 282 288 284 292 293 288 281 283 294 290 280 280 281 280 283 286 288 289 295 288 281 286 284 273 273 270 269 278 284 274
166 164 162 160 155 151 151 147 148 137 141 141 136 131 116 116 102 82 54 41 51 53 22 3 32 23 339 290 318 304 310 301 304 301 294 297 300 297 304 307 296 290 284 279 278 279 280 281 278 279 279 286 286 289 290 288 279 269 268 274 272 274 278
168 165 162 158 156 152 150 150 149 141 135 133 134 128 116 117 91 80 67 62 47 52 44 30 8 354 349 316 313 302 308 301 295 293 280 279 278 279 281 284 286 286 291 299 294 285 276 271 269 274 289 285 283 285 287 280 271 273 258 249 265 275 276
168 163 160 154 154 152 152 150 143 142 138 134 131 126 129 113 105 81 73 82 73 55 46 27 351 2 353 318 310 318 301 294 297 293 289 284 280 279 280 285 289 275 268 276 291 289 289 287 286 288 288 291 288 282 284 277 279 267 277 286 284 272 260
170 161 153 151 151 152 151 151 146 146 139 138 131 138 135 129 120 128 123 85 54 45 27 13 354 357 351 320 311 320 306 302 291 286 279 273 268 270 270 271 272 275 274 271 277 281 280 287 289 280 274 277 286 290 288 287 283 278 281 284 283 283 287
174 162 154 152 152 153 155 155 155 150 147 147 141 141 144 132 131 118 98 95 74 20 7 350 347 351 341 322 322 314 298 313 308 298 299 286 282 278 273 271 273 279 278 284 281 275 272 270 275 283 280 276 285 286 288 285 280 285 281 285 294 288 315
177 163 155 155 155 158 160 162 159 158 164 156 152 153 151 147 143 155 150 134 104 345 336 332 338 335 326 320 319 306 314 315 296 289 285 298 296 296 288 281 281 278 280 280 282 286 285 285 283 283 285 279 270 272 282 286 286 287 288 288 279 282 283
184 168 161 158 159 163 166 166 167 164 162 164 161 157 166 160 163 168 169 182 182 250 305 319 319 324 326 314 319 309 308 316 302 292 290 292 297 292 289 286 278 275 277 275 276 273 274 277 275 273 273 277 278 278 280 281 283 271 285 291 292 294 296
190 179 167 163 166 168 169 168 168 168 171 174 166 166 177 166 178 187 187 200 204 262 297 314 318 325 318 316 316 314 325 310 302 297 291 306 306 298 288 276 276 278 283 281 275 273 275 278 278 276 276 276 275 274 275 277 276 282 280 282 289 289 286
193 184 175 171 171 172 167 170 170 172 176 181 169 176 177 183 187 199 207 212 251 247 293 297 322 317 317 318 320 328 318 315 313 316 326 309 285 288 293 289 289 282 274 273 278 277 272 272 273 274 273 274 273 273 271 273 276 282 283 282 285 287 289
195 189 183 179 181 174 171 173 170 178 180 180 179 179 184 173 197 210 228 234 221 268 288 313 313 319 317 318 315 301 310 319 316 312 309 301 301 293 289 284 280 278 280 280 281 280 279 276 278 279 279 277 279 279 277 278 281 283 287 289 287 290 292
197 197 190 190 190 182 175 174 176 183 187 179 185 186 181 179 195 209 215 227 252 282 295 311 315 313 314 314 314 305 310 311 314 312 308 308 304 305 297 290 287 287 287 283 281 280 282 279 278 277 277 276 272 272 274 276 280 281 286 289 294 295 292
203 203 201 198 195 190 183 180 183 189 191 184 183 185 178 192 187 205 220 229 245 252 286 297 298 308 325 327 307 307 307 300 303 309 306 304 308 304 298 294 289 286 282 279 280 282 283 284 281 276 275 275 276 275 276 277 275 279 286 288 289 290 293
213 207 207 201 196 194 192 189 187 191 187 188 187 177 186 191 200 206 204 235 245 254 277 300 311 297 265 278 304 308 310 313 312 302 301 299 293 290 289 286 287 287 286 282 280 276 277 280 280 280 281 282 283 285 283 281 281 281 282 284 289 290 292
222 211 210 207 198 197 194 192 184 190 189 190 182 188 191 192 211 208 208 217 253 271 275 296 298 307 294 292 298 303 303 304 303 301 299 296 296 296 290 287 286 282 280 277 278 277 279 280 281 280 282 283 284 285 283 281 279 279 280 284 288 292 290
222 222 216 212 206 202 194 188 185 187 181 184 183 193 187 199 209 227 212 212 241 254 288 301 299 273 283 294 302 309 303 300 298 299 297 294 294 292 289 288 290 287 279 275 278 282 284 285 282 282 282 283 283 282 283 282 282 282 282 285 286 285 290
222 221 218 213 204 192 182 181 189 179 168 179 185 191 190 198 200 216 205 217 218 248 252 233 248 287 295 307 314 307 304 300 297 298 298 296 291 288 288 284 280 283 282 282 291 296 291 284 292 291 291 289 290 290 289 291 290 289 288 287 288 294 293
219 216 208 207 197 184 180 173 170 164 160 171 188 191 191 202 201 212 200 208 221 205 246 260 259 336 315 309 305 299 300 299 296 295 295 296 297 296 293 295 290 289 319 316 310 299 306 315 300 294 297 301 300 296 294 293 290 291 291 290 290 291 292
220 218 205 197 184 179 180 173 168 167 174 181 182 183 184 204 209 210 211 208 215 214 214 222 86 65 20 339 327 314 301 294 296 299 298 297 297 295 292 291 290 314 295 285 280 264 243 260 284 295 302 305 304 300 294 291 290 289 289 288 289 293 292
215 218 206 184 175 179 179 173 173 171 177 184 175 161 177 200 207 211 212 212 209 214 218 110 104 105 99 42 307 300 298 294 293 292 288 293 293 294 294 292 296 291 282 276 265 193 224 222 229 249 279 292 294 291 286 284 285 287 286 287 289 289 291
219 215 203 194 185 180 174 174 174 173 173 176 171 170 189 201 201 201 207 211 214 220 188 115 130 122 114 96 356 303 295 287 287 280 285 288 286 289 288 287 289 296 296 321 315 277 217 213 216 225 237 244 249 251 250 267 285 286 287 290 289 289 292
229 226 216 210 192 169 172 173 177 179 184 181 167 182 193 196 194 192 198 207 212 209 169 136 134 142 130 143 168 276 270 278 275 279 286 280 283 284 292 295 297 298 302 304 298 304 314 317 263 215 226 236 240 242 245 242 240 261 285 282 285 289 290
230 231 222 201 165 167 168 176 180 186 184 171 177 188 196 195 193 194 197 204 212 206 171 141 144 145 142 164 216 253 272 273 276 279 277 280 273 271 280 295 296 291 293 310 306 325 332 321 320 317 308 304 313 282 218 213 217 227 240 266 279 283 287
252 248 199 170 169 172 175 178 185 190 186 178 186 194 192 193 193 192 191 200 209 202 138 140 146 151 150 184 222 256 258 255 256 257 255 254 263 269 275 270 279 285 303 314 53 21 338 331 322 313 307 312 316 309 306 300 282 285 268 270 286 289 290
238 212 176 168 173 183 185 190 192 193 188 185 192 195 192 193 189 189 192 195 202 203 135 147 145 155 156 195 230 244 241 243 249 252 247 247 253 255 261 270 276 273 293 345 71 54 26 330 311 305 303 310 307 303 295 265 251 243 266 293 296 295 294
238 226 208 190 189 192 194 194 192 196 184 185 192 194 190 190 189 193 190 194 193 202 148 153 151 160 171 197 234 243 241 242 238 242 247 236 243 244 247 251 247 261 283 64 57 45 15 327 304 296 305 305 302 302 307 3 163 198 205 221 234 245 254
235 222 214 215 213 210 201 194 184 178 186 189 197 194 188 189 192 192 191 190 193 196 178 151 160 161 176 195 248 267 241 234 230 247 236 227 245 247 154 125 285 277 278 49 46 28 352 314 303 304 305 307 303 298 298 323 325 297 240 221 229 239 246
222 227 229 223 207 177 171 163 142 153 187 212 206 197 192 194 191 192 188 193 157 192 182 148 163 162 185 190 224 242 250 251 228 227 237 220 223 239 190 170 180 310 328 23 15 346 317 306 302 307 308 302 302 307 327 333 317 309 318 317 306 282 263
220 223 200 165 104 164 152 150 168 195 199 210 207 200 193 202 192 195 183 186 169 196 208 174 163 169 177 191 230 264 270 247 242 222 234 272 242 184 212 177 147 116 123 136 292 288 298 292 294 302 302 297 313 313 336 319 305 304 312 308 312 304 298
217 208 202 198 174 173 181 184 180 180 179 189 187 200 192 203 198 196 185 188 186 193 201 202 156 171 173 191 207 244 253 250 252 251 241 216 228 225 206 214 135 132 157 119 286 309 281 282 282 287 284 309 329 329 314 294 296 286 289 303 311 315 321
238 224 210 206 195 192 190 187 189 188 173 183 196 217 207 201 199 192 189 189 195 197 182 204 164 166 172 182 202 225 260 259 353 291 272 247 245 234 233 227 130 118 111 117 293 280 282 275 271 268 341 1 303 291 283 289 286 291 302 304 313 316 330
226 219 210 201 197 194 190 192 190 186 191 194 202 209 201 198 196 193 193 193 195 196 188 180 202 172 172 184 194 215 243 282 18 287 270 270 267 259 218 239 99 90 80 191 256 260 266 275 265 276 358 297 288 280 276 267 284 294 302 310 306 314 325
233 227 214 206 206 204 194 195 196 194 198 202 203 203 199 197 197 198 196 196 195 193 190 194 172 189 171 184 186 209 221 240 283 267 288 270 272 255 237 113 74 89 141 238 256 256 251 245 278 322 282 278 272 273 271 283 291 309 304 296 312 325 331